STARLINK-34867, 65459

Orbit data source: Space-Track

STARLINK-34867, 65459 is a payload satellite owned by SpaceX/Seattle (US) in LEO that was launched on Wed, 03 Sep 2025 UTC via an FALCON 9 launch vehicle from the Air Force Eastern Test Range (AFETR). Payload-class satellites include a variety of spacecraft equipped with specific instruments for various scientific and technological missions. These include communications satellites like Starlink; space stations such as the ISS; scientific satellites like the Hubble; Earth observation satellites from companies like Planet Labs, Umbra, and HawkEye 360; GPS; miniature CubeSats for education and research; and military/defense satellites.

Loading next visibility...
Identifier
65459, 2025-195B
Orbit
LEO
Country
Flag of USUS
Related business
Manufacturer
SpaceX/Seattle
Mission
Operational Commercial Communications
Bus & Motor
STARLINK V2MO, Unknown motor
Mass
575 kg wet, ~530 kg dry
Launch date (UTC)
2025-09-03 (10 months ago)
Launch vehicle
FALCON 9
Launch site
Air Force Eastern Test Range (AFETR)
Object type
Payload
Rocket body
Debris
Shape & HBR
Box + 2 Pan, 17.7 m
Radar Cross Section
36.964 m², Large (>1 m²)

Expand to show TLE details & history
Last TLE update: 12 hours ago

TLE from 12 hours ago
0 STARLINK-34867
1 65459U 25195B   26171.33812493  .00019132  00000-0  57575-3 0  9999
2 65459  53.1580 140.3996 0001291  91.9579 268.1572 15.34410131 45720
Epoch: 2026-06-20T08:06Z
TLE epoch observation values (Epoch: 2026-06-20T08:06:53.993Z)
Latitude
-0°
Longitude
110.12045°
Altitude
463.603 km
Speed
7.636 km/s
True Right ascension
09h 21m 35s
True Declination
0° 00' 00"
Sunlit
Object was in daylight at epoch
Visualization orbit readout
Latitude
Unknown
Longitude
Unknown
Altitude
Unknown
Speed
Unknown
Apparent Right ascension
Unknown
Apparent Declination
Unknown
Sunlit
N/A
Visualization observer readout
Local Sidereal Time
07:19:05
Azimuth
Unknown
Elevation
Unknown
Doppler factor
Unknown
Orbital elements
Apogee altitude
463.814 km
Perigee altitude
462.047 km
Semi-major axis
6,841.067 km
Eccentricity
0.00013
Inclination
53.158°
RAAN
140.3996°
Arg. of periapsis
91.9579°
True anomaly
268.14241°
Mean anomaly
268.1572°
Eccentric anomaly
268.14981°
Mean motion
3.83581 °/min
Orbital period
93.85 mins
BSTAR
0.00057575
Loading maneuver chart data...
Computing Atmospheric mass density...
Loading historical data...
Loading historical data...
Loading historical data...
Loading historical data...
Loading historical data...
Loading historical data...
Loading historical data...

Documentation

Showing up to 5 results
|